Weather observations for the past three days for
Watsonville, Watsonville Municipal Airport
Imperial (Metric)
Date Time (pdt) Wind (mph) Vis. (mi.) Weather Sky Cond. Temperature (ºF) Relative Humidity Wind Chill (°F) Heat Index (°F) Pressure Precipitation (in)
Air Dwpt 6 hour altimeter (in) sea level (mb) 1 hr 3 hr 6 hr
Max. Min.
19 00:53 SE 5 5.00 Fog/Mist OVC003 55 55 100% 30.03 1017.0
18 23:53 SE 3 10.00 Fair CLR 55.9 55 97% 30.04 1017.0
18 22:53 SE 5 10.00 Fair CLR 55.9 55 71.1 55.9 97% 30.05 1017.4
18 21:53 SE 5 10.00 Fair CLR 57 54 90% 30.04 1017.3
18 20:53 S 6 10.00 Fair CLR 57.9 55 90% 30.03 1016.7
18 19:53 S 7 10.00 Fair CLR 60.1 55 84% 30.01 1016.3
18 18:53 S 8 10.00 Fair CLR 62.1 55 78% 30.01 1016.1
18 17:53 S 8 10.00 Fair CLR 66 55.9 70% 30 1015.7
18 16:53 S 8 10.00 Fair CLR 71.1 57 73.9 66.9 61% 30 1015.8
18 15:53 S 9 10.00 Fair CLR 72 57 59% 30 1016.0
18 14:53 S 8 10.00 Fair CLR 73 57 57% 30 1016.0
18 13:53 SW 8 10.00 Fair CLR 72 57 59% 30.02 1016.4
18 12:53 S 7 10.00 Fair CLR 72 57 59% 30.02 1016.6
18 11:53 SW 7 10.00 Fair CLR 69.1 57 66% 30.02 1016.6
18 10:53 S 6 10.00 Fair CLR 66.9 57 66.9 50 71% 30.02 1016.6
18 09:53 S 6 10.00 Fair CLR 63 55.9 78% 30.03 1016.7
18 08:53 SE 5 10.00 Overcast OVC003 57 55.9 96% 30.02 1016.6
18 07:53 Calm 0.25 Fog VV002 55 55 100% 30.01 1016.3
18 06:53 Calm 0.15 Fog VV002 53.1 53.1 100% 30 1015.8
18 05:53 Calm 0.25 Fog VV002 51.1 51.1 100% 30 1015.7
18 04:53 Calm 0.50 Fog VV002 51.1 51.1 57 51.1 100% 29.99 1015.6
18 03:53 Calm 0.25 Fog VV002 53.1 53.1 100% 29.98 1015.3
18 02:53 Calm 10.00 Fair CLR 52 51.1 97% 29.99 1015.4
18 01:53 Calm 10.00 Fair CLR 55.9 54 93% 30 1015.7
18 00:53 Calm 10.00 Fair CLR 53.1 53.1 100% 30 1015.8
17 23:53 SE 3 10.00 Fair CLR 55.9 54 93% 30 1016.0
17 22:53 Calm 10.00 Fair CLR 57 55 75 55.9 93% 30 1015.9
17 21:53 S 5 10.00 Fair CLR 57.9 55 90% 30 1015.9
17 20:53 S 5 10.00 Fair CLR 60.1 55.9 86% 29.99 1015.6
17 19:53 S 8 10.00 Fair CLR 63 55.9 78% 29.98 1015.2
17 18:53 S 8 10.00 Fair CLR 69.1 57 66% 29.97 1014.7
17 17:53 S 7 10.00 Fair CLR 73 57 57% 29.97 1014.9
17 16:53 S 7 10.00 Fair CLR 73.9 55.9 75.9 69.1 54% 29.99 1015.5
17 15:53 S 8 10.00 Fair CLR 73.9 55.9 54% 30 1015.9
17 14:53 Vrbl 7 10.00 Fair CLR 73.9 57 56% 30.01 1016.2
17 13:53 SW 9 10.00 Fair CLR 75 57 54% 78 30.02 1016.5
17 12:53 S 8 10.00 Fair CLR 73.9 57 56% 30.03 1016.9
17 11:53 SW 6 10.00 Fair CLR 71.1 55.9 59% 30.04 1017.1
17 10:53 S 3 10.00 Fair CLR 69.1 55 70 50 61% 30.04 1017.3
17 09:53 SW 3 10.00 Fair CLR 64.9 54 68% 30.05 1017.5
17 08:53 Calm 10.00 A Few Clouds FEW012 61 54 78% 30.05 1017.7
17 07:53 Calm 10.00 Fair CLR 55.9 52 87% 30.05 1017.5
17 06:53 NW 5 10.00 Fair CLR 52 48.9 89% 30.04 1017.3
17 05:53 NW 3 10.00 Fair CLR 50 48 93% 30.03 1016.8
17 04:53 Calm 10.00 Fair CLR 51.1 48.9 57 51.1 92% 30.02 1016.5
17 03:53 Calm 10.00 Fair CLR 51.1 48.9 92% 30.02 1016.5
17 02:53 N 3 10.00 Fair CLR 52 48.9 89% 30.02 1016.6
17 01:53 N 3 10.00 Fair CLR 53.1 50 89% 30.03 1016.7
17 00:53 Calm 10.00 Fair CLR 54 51.1 90% 30.04 1017.0
16 23:53 Calm 10.00 Fair CLR 55.9 52 87% 30.04 1017.1
16 22:53 Calm 10.00 Fair CLR 57 53.1 66.9 55.9 87% 30.04 1017.1
16 21:53 Calm 10.00 Fair CLR 55.9 52 87% 30.03 1017.0
16 20:53 SW 3 10.00 Fair CLR 57.9 53.1 84% 30.03 1017.0
16 19:53 SW 5 10.00 Fair CLR 60.1 53.1 78% 30.03 1016.8
16 18:53 W 12 10.00 Fair CLR 63 52 68% 30.02 1016.5
16 17:53 W 15 10.00 Fair CLR 64.9 52 63% 30.02 1016.5
16 16:53 W 13 10.00 Fair CLR 66.9 52 70 66 59% 30.03 1016.9
16 15:53 W 13 10.00 Fair CLR 68 53.1 59% 30.04 1017.2
16 14:53 SW 14 10.00 Fair CLR 68 53.1 59% 30.05 1017.6
16 13:53 W 13 10.00 Fair CLR 70 53.1 55% 30.06 1017.8
16 12:53 W 12 10.00 Fair CLR 69.1 54 59% 30.06 1017.9
16 11:53 W 12 10.00 Fair CLR 66.9 54 63% 30.06 1017.8
16 10:53 Vrbl 3 10.00 Fair CLR 66.9 54 66.9 57 63% 30.05 1017.5
16 09:53 SW 5 10.00 Overcast OVC016 62.1 53.1 73% 30.05 1017.5
16 08:53 W 3 10.00 Overcast OVC014 61 53.1 75% 30.05 1017.6
16 07:53 W 3 10.00 Overcast OVC010 59 54 83% 30.05 1017.5
16 06:53 Calm 10.00 Overcast OVC011 57 55 93% 30.04 1017.2
16 05:53 SW 3 10.00 Overcast OVC012 57 55 93% 30.03 1016.8
16 04:53 Calm 10.00 Overcast OVC010 59 55 59 57 87% 30.01 1016.3
16 03:53 Calm 10.00 Overcast OVC008 57.9 55 90% 30.01 1016.1
16 02:53 Calm 10.00 Overcast OVC008 57.9 55 90% 30.01 1016.2
16 01:53 SE 5 10.00 Overcast OVC009 57.9 55 90% 30.01 1016.2
Date Time (pdt) Wind (mph) Vis. (mi.) Weather Sky Cond. Air Dwpt Max. Min. Relative Humidity Wind Chill (°F) Heat Index (°F) altimeter (in) sea level (mb) 1 hr 3 hr 6 hr
6 hour
Temperature (ºF) Pressure Precipitation (in)